GW2804 Weather Reports


time (UTC)temp
C
wind
direction
speed
KPH
gust
KPH
rain 1hr
cm
rain 24hr
cm
rain mn
cm
humidity
%
barometer
mb
20260505083056 10 345 6.4 19.3 0.00 0.00 0.00 47 1008.9
20260505081600 10 19 8.0 17.7 0.00 0.00 0.00 50 1007.4
20260505080108 11 330 3.2 14.5 0.00 0.00 0.00 48 1008.8
20260505074549 11 324 6.4 17.7 0.00 0.00 0.00 46 1009.1
20260505073049 11 344 4.8 19.3 0.00 0.00 0.00 46 1009.1
20260505071556 11 355 8.0 24.1 0.00 0.00 0.00 47 1008.0
20260505070049 11 360 3.2 12.9 0.00 0.00 0.00 49 1008.0
20260505064548 11 325 3.2 12.9 0.00 0.00 0.00 47 1008.0
20260505063105 11 329 6.4 17.7 0.00 0.00 0.00 47 1007.5
20260505061615 11 347 8.0 25.7 0.00 0.00 0.00 48 1006.6
20260505054552 12 344 11.3 20.9 0.00 0.00 0.00 48 1006.3
20260505053053 12 294 9.7 20.9 0.00 0.00 0.00 46 1005.8
20260505051609 12 40 9.7 19.3 0.00 0.00 0.00 45 1005.2
20260505041551 14 324 8.0 19.3 0.00 0.00 0.00 42 1005.6
20260505040053 14 326 6.4 25.7 0.00 0.00 0.00 41 1005.7
20260505034548 15 5 6.4 19.3 0.00 0.00 0.00 41 1005.3
20260505033049 15 336 6.4 20.9 0.00 0.00 0.00 39 1005.1
20260505031556 16 323 9.7 19.3 0.00 0.00 0.00 38 1005.0
20260505030052 16 32 6.4 22.5 0.00 0.00 0.00 38 1005.1
20260505024553 17 349 12.9 22.5 0.00 0.00 0.00 38 1004.8
20260505023047 17 311 11.3 29.0 0.00 0.00 0.00 40 1004.3
20260505021552 18 310 6.4 17.7 0.00 0.00 0.00 40 1003.6
20260505020059 18 329 11.3 19.3 0.00 0.00 0.00 40 1003.3
20260505014552 18 351 6.4 12.9 0.00 0.00 0.00 40 1002.9
20260505013052 20 10 4.8 22.5 0.00 0.00 0.00 38 1002.5
20260505011551 20 332 9.7 22.5 0.00 0.00 0.00 36 1002.0
20260505010107 21 360 8.0 24.1 0.00 0.00 0.00 35 1001.5
20260505004548 22 5 14.5 33.8 0.00 0.00 0.00 33 1001.0
20260505003055 23 333 14.5 29.0 0.00 0.00 0.00 35 1000.4
20260505001548 25 326 12.9 29.0 0.00 0.00 0.00 37 999.7
20260505000049 24 295 6.4 14.5 0.00 0.00 0.00 40 999.1
20260504234550 25 251 8.0 17.7 0.00 0.00 0.00 41 999.2
20260504233106 24 243 8.0 30.6 0.00 0.00 0.00 41 999.3
20260504231600 25 265 11.3 25.7 0.00 0.00 0.00 39 999.5
20260504230058 25 188 12.9 33.8 0.00 0.00 0.00 36 999.0
20260504224554 26 267 11.3 24.1 0.00 0.00 0.00 33 999.0
20260504223052 27 267 17.7 37.0 0.00 0.00 0.00 32 998.9
20260504221552 27 299 14.5 38.6 0.00 0.00 0.00 31 998.8
20260504220054 27 211 12.9 25.7 0.00 0.00 0.00 31 999.0
20260504214555 28 186 11.3 32.2 0.00 0.00 0.00 30 999.0
20260504213052 27 248 12.9 32.2 0.00 0.00 0.00 32 999.1
20260504211552 28 240 12.9 32.2 0.00 0.00 0.00 31 999.0
20260504210107 27 155 9.7 33.8 0.00 0.00 0.00 31 999.2
20260504204559 27 186 14.5 30.6 0.00 0.00 0.00 31 999.4
20260504201554 27 209 9.7 25.7 0.00 0.00 0.00 29 1000.1
20260504200053 27 157 9.7 24.1 0.00 0.00 0.00 31 1000.3
20260504194550 27 234 12.9 25.7 0.00 0.00 0.00 32 1000.5
20260504193050 27 212 12.9 27.4 0.00 0.00 0.00 33 1000.5
20260504191551 27 191 14.5 25.7 0.00 0.00 0.00 34 1000.5
20260504190127 27 189 11.3 20.9 0.00 0.00 0.00 35 1000.5
20260504184549 27 244 12.9 20.9 0.00 0.00 0.00 35 1000.7
20260504183051 26 221 12.9 24.1 0.00 0.00 0.00 35 1000.7
20260504181550 26 302 8.0 30.6 0.00 0.00 0.00 38 1000.8
20260504173052 25 254 12.9 29.0 0.00 0.00 0.00 39 1000.9
20260504171557 25 292 9.7 22.5 0.00 0.00 0.00 41 1000.8